Location: Katzenstein
(51.7484°N, 10.2155°E)
Time: 16:57:24
(UTC+00:00)

ATLAS CENTAUR R/B - Pass Details

Date: 17 February 2020
Orbit: 466 x 681 km, 64.7° (Epoch: 26 March)

Event Time Altitude Azimuth Distance (km) Brightness Sun altitude
Exits shadow 03:43:07 53° 135° (SE) 783 2.1 -26.5°
Maximum altitude 03:43:17 53° 126° (SE) 779 2.1 -26.4°
Drops below altitude 10° 03:47:38 10° 50° (NE) 1,965 4.9 -25.8°
Sets 03:49:52 0° 45° (NE) 2,836 5.9 -25.4°
